Flag for Canada Weather past 2 weeks in Caledon, Ontario, Canada

30 °F


Feels Like: 27 °F
Forecast: N/A
Wind: 3 mph from North

Location: Borden

Current Time: Nov 28, 2015 at 5:09:40 PM

Latest Report: Nov 28, 2015 at 4:00 PM

Visibility: 9 mi

Pressure: 30.32 "Hg

Humidity: 75%

Dew point: 23 °F

Location of CaledonLocation

Historic Weather in Caledon — Graph


Caledon temperature yesterday

Maximum temperature yesterday: 59 °F (at 12:00 AM)
Minimum temperature yesterday: 30 °F (at 9:00 PM)
Average temperature yesterday: 46 °F

Past Weeks' High & Low Weather Summary

High59 °F (Nov 19, 2:59 AM)100% (Nov 15, 7:00 PM)30.58 "Hg (Nov 15, 7:00 PM)
Low10 °F (Nov 23, 2:00 AM)37% (Nov 17, 3:00 PM)29.55 "Hg (Nov 22, 12:49 AM)
Average37 °F82%30.16 "Hg
* Reported Nov 13 4:00 PM — Nov 28 4:00 PM, Caledon, Weather by CustomWeather, © 2015

Note: Actual official high and low records may vary slightly from our data, if they occured in-between our weather recording intervals... More about our weather records


Caledon weather history for previous 24 hours

Time TempWeatherWind HumidityBarometerVisibility
4:00 PM
Sat, Nov 28
30 °FSunny.3 mph75%30.32 "Hg9 mi
3:00 PM32 °FPartly sunny.8 mph75%30.32 "Hg9 mi
2:00 PM32 °FScattered clouds.10 mph75%30.34 "Hg9 mi
1:00 PM32 °FPartly sunny.7 mph75%30.35 "Hg9 mi
12:00 PM32 °FPartly sunny.10 mph80%30.35 "Hg9 mi
11:51 AM32 °FPartly sunny.5 mph75%30.33 "Hg9 mi
11:00 AM30 °FOvercast.8 mph86%30.38 "Hg9 mi
10:00 AM28 °FOvercast.5 mph86%30.39 "Hg9 mi
9:00 AM28 °FOvercast.2 mph86%30.40 "Hg9 mi
8:00 AM27 °FOvercast.5 mph86%30.40 "Hg9 mi
7:57 AM27 °FLow clouds.6 mph86%30.36 "Hg9 mi
7:00 AM27 °FLow clouds.6 mph93%30.38 "Hg9 mi
6:00 AM27 °FLow clouds.6 mph93%30.37 "Hg9 mi
5:02 AM28 °FLow clouds.6 mph86%30.34 "Hg9 mi
4:00 AM28 °FOvercast.8 mph86%30.37 "Hg9 mi
3:00 AM28 °FOvercast.6 mph86%30.39 "Hg9 mi
2:00 AM30 °FPassing clouds.8 mph86%30.38 "Hg9 mi
1:00 AM30 °FClear.6 mph86%30.37 "Hg9 mi
12:00 AM30 °FClear.8 mph86%30.37 "Hg9 mi
11:00 PM
Fri, Nov 27
30 °FPassing clouds.6 mph86%30.35 "Hg9 mi
10:01 PM30 °FPassing clouds.6 mph86%30.33 "Hg9 mi
9:00 PM30 °FOvercast.9 mph93%30.35 "Hg9 mi
8:00 PM32 °FLight snow. Overcast.10 mph93%30.35 "Hg3 mi
7:00 PM34 °FLight rain. Low clouds.9 mph93%30.32 "Hg3 mi
6:04 PM34 °FLight rain. Overcast.8 mph93%30.29 "Hg9 mi
6:01 PM34 °FOvercast.8 mph100%30.29 "Hg9 mi
5:04 PM36 °FLight rain. Low clouds.10 mph93%30.26 "Hg9 mi
Weather by CustomWeather, © 2015

See weather overviewHow to use our weather pages